North Platte, NE

9:00 AM CDT on June 23, 2017 (GMT -0500)
North Platte Regional-Bird

Weather History for KLBF - June, 2013

Change the Weather History Date:

Thursday, June 20, 2013

  Actual Average Record
Temperature  
Mean Temperature 80 °F 70 °F  
Max Temperature 93 °F 84 °F 102 °F (1988)
Min Temperature 67 °F 55 °F 41 °F (2001)
Degree Days  
Heating Degree Days 0 1  
Month to date heating degree days 47 45  
Since 1 June heating degree days 47 45  
Since 1 July heating degree days 6763 6680  
Cooling Degree Days 15 5  
Month to date cooling degree days 91 70  
Year to date cooling degree days 139 98  
Since 1 June cooling degree days 91 70  
Growing Degree Days 30 (Base 50)    
Moisture  
Dew Point 63 °F    
Average Humidity 63    
Maximum Humidity 87    
Minimum Humidity 38    
Precipitation  
Precipitation 0.00 in 0.11 in 1.30 in (1881)
Month to date precipitation 0.93 2.40  
Year to date precipitation 7.09 9.84  
Snow  
Snow 0.00 in 0.00 in 0.00 in ()
Month to date snowfall 0.0 0.0  
Since 1 June snowfall 0.0 0.0  
Since 1 July snowfall 30.2 28.5  
Snow Depth 0.00 in    
Sea Level Pressure  
Sea Level Pressure 29.71 in    
Wind  
Wind Speed 9 mph (SE)    
Max Wind Speed 18 mph    
Max Gust Speed 23 mph    
Visibility 10 miles    
Events      
T = Trace of Precipitation, MM = Missing Value Source: NWS Daily Summary

Daily Weather History Graph

Daily Weather History Graph

Search for Another Location

Airport or City:

Trip Planner

Search our weather history database for the weather conditions in past years. The results will help you decide how hot, cold, wet, or windy it might be!

Date:

Astronomy

Jun. 20, 2013 Rise Set
Actual Time 6:10 AM CDT 9:18 PM CDT
Civil Twilight 5:36 AM CDT 9:52 PM CDT
Nautical Twilight 4:53 AM CDT 10:35 PM CDT
Astronomical Twilight 4:01 AM CDT 11:27 PM CDT
Moon 6:22 PM CDT (6/20) 3:39 AM CDT (6/20)
Length of Visible Light 16h 16m
Length of Day
15h 08m
Waxing Gibbous, 89% of the Moon is Illuminated
Jun 20
Waxing Gibbous
Jun 23
Full
Jun 29
Last Quarter
Jul 8
New
Jul 15
First Quarter

Hourly Weather History & Observations

Time (CDT) Temp. Heat Index Dew Point Humidity Pressure Visibility Wind Dir Wind Speed Gust Speed Precip Events Conditions
12:53 AM 72.0 °F - 59.0 °F 64% 29.75 in 10.0 mi SE 11.5 mph - N/A   Clear
1:53 AM 71.1 °F - 59.0 °F 66% 29.73 in 10.0 mi SE 12.7 mph 19.6 mph N/A   Clear
2:53 AM 69.1 °F - 60.1 °F 73% 29.73 in 10.0 mi SE 10.4 mph 18.4 mph N/A   Clear
3:53 AM 68.0 °F - 61.0 °F 78% 29.72 in 10.0 mi SE 12.7 mph - N/A   Clear
4:48 AM 69.8 °F - 62.6 °F 78% 29.80 in 10.0 mi SSE 13.8 mph - N/A   Mostly Cloudy
4:53 AM 69.1 °F - 62.1 °F 78% 29.71 in 10.0 mi SSE 12.7 mph 21.9 mph N/A   Mostly Cloudy
5:45 AM 68.0 °F - 62.6 °F 83% 29.79 in 10.0 mi SE 10.4 mph - N/A   Scattered Clouds
5:53 AM 66.9 °F - 62.1 °F 84% 29.71 in 10.0 mi SE 10.4 mph - N/A   Partly Cloudy
6:37 AM 66.2 °F - 62.6 °F 88% 29.78 in 10.0 mi SSE 11.5 mph 19.6 mph N/A   Mostly Cloudy
6:53 AM 68.0 °F - 63.0 °F 84% 29.69 in 10.0 mi SE 12.7 mph - N/A   Mostly Cloudy
7:53 AM 70.0 °F - 64.0 °F 81% 29.70 in 10.0 mi SSE 12.7 mph 23.0 mph N/A   Mostly Cloudy
8:53 AM 72.0 °F - 64.0 °F 76% 29.72 in 10.0 mi SSE 11.5 mph - N/A   Mostly Cloudy
9:53 AM 72.0 °F - 63.0 °F 73% 29.72 in 10.0 mi South 12.7 mph 21.9 mph N/A   Overcast
10:53 AM 73.9 °F - 63.0 °F 68% 29.73 in 10.0 mi South 10.4 mph - N/A   Overcast
11:53 AM 75.9 °F - 63.0 °F 64% 29.74 in 10.0 mi South 4.6 mph - N/A   Overcast
12:53 PM 79.0 °F - 63.0 °F 58% 29.74 in 10.0 mi Variable 4.6 mph - N/A   Overcast
1:53 PM 82.9 °F 84.4 °F 64.0 °F 53% 29.72 in 10.0 mi ESE 6.9 mph - N/A   Scattered Clouds
2:53 PM 88.0 °F 89.6 °F 64.9 °F 46% 29.70 in 10.0 mi SSE 6.9 mph - N/A   Partly Cloudy
3:53 PM 90.0 °F 91.3 °F 64.0 °F 42% 29.68 in 10.0 mi Variable 5.8 mph - N/A   Clear
4:53 PM 91.9 °F 93.3 °F 64.0 °F 39% 29.67 in 10.0 mi SSE 4.6 mph - N/A   Clear
5:53 PM 91.9 °F 92.9 °F 63.0 °F 38% 29.67 in 10.0 mi SE 9.2 mph - N/A   Clear
6:53 PM 91.9 °F 92.9 °F 63.0 °F 38% 29.66 in 10.0 mi ESE 4.6 mph - N/A   Clear
7:53 PM 89.1 °F 91.3 °F 66.0 °F 46% 29.66 in 10.0 mi ENE 5.8 mph - N/A   Clear
8:53 PM 82.9 °F 85.8 °F 68.0 °F 60% 29.68 in 10.0 mi ENE 6.9 mph - N/A   Clear
9:53 PM 80.1 °F 82.1 °F 66.0 °F 62% 29.68 in 10.0 mi ENE 11.5 mph - N/A   Clear
10:53 PM 75.9 °F - 66.0 °F 71% 29.70 in 10.0 mi ESE 8.1 mph - N/A   Clear
11:53 PM 70.0 °F - 64.9 °F 84% 29.72 in 10.0 mi ESE 5.8 mph - N/A   Clear